User: anonymous   Login
Location: Grossmotten
(48.5500°N, 15.3833°E)
Time: 10:36:45
(UTC+00:00)
Language:

Cosmos 1697 Rocket - Orbit

View from above orbital plane
View from above orbital plane
View from above satellite
View from above satellite

Ground track
Ground track

The orbit data is extracted from the following two-line orbital elements,

1 16182U 85097B   20018.88908642 -.00000204  00000-0 -78729-4 0  9998
2 16182  71.0015 178.2922 0005347  65.9852  92.9743 14.16247161770112
Epoch (UTC): 18 January 2020 21:20:17
Eccentricity: 0.0005347
inclination: 71.0015°
perigee height: 834 km
apogee height: 842 km
right ascension of ascending node: 178.2922°
argument of perigee: 65.9852°
revolutions per day: 14.16247161
mean anomaly at epoch: 92.9743°
orbit number at epoch: 77011

The dashed part of the orbit path shows where the satellite is in the earth's shadow,  

DLR